DTR233 EDHL-EDDM

Flight info

Callsign DTR233
Flight time 1h 26m
Altitude 21000
Route RAMAR Z990 HLZ M852 POVEL Z94 GALMA T703 LULAR T105 LANDU LANDU2B
Aircraft AT76/M-SDFGIRY/S

Departure

Time 2026-05-07 17:21
Airport Lübeck Blankensee Airport (EDHL)

Arrival

Time 2026-05-07 18:47
Airport Munich Airport (EDDM)
Time Latitude Longitude Altitude Speed Heading
2026-05-07 16:57 53.80475 10.70335 58 ft 0 kts 339°
2026-05-07 17:17 53.80476 10.70331 52 ft 2 kts 307°
2026-05-07 17:17 53.80467 10.70329 58 ft 2 kts 165°
2026-05-07 17:17 53.80438 10.70348 54 ft 4 kts 175°
2026-05-07 17:18 53.80427 10.70328 58 ft 4 kts 240°
2026-05-07 17:18 53.80406 10.70241 58 ft 12 kts 254°
2026-05-07 17:18 53.80382 10.70126 56 ft 7 kts 233°
2026-05-07 17:18 53.80355 10.70120 58 ft 0 kts 170°
2026-05-07 17:19 53.80326 10.70129 58 ft 7 kts 170°
2026-05-07 17:19 53.80263 10.70150 55 ft 11 kts 168°
2026-05-07 17:19 53.80204 10.70185 54 ft 6 kts 128°
2026-05-07 17:20 53.80204 10.70203 58 ft 1 kts 75°
2026-05-07 17:20 53.80206 10.70215 58 ft 1 kts 75°
2026-05-07 17:20 53.80211 10.70246 57 ft 13 kts 74°
2026-05-07 17:20 53.80315 10.70785 57 ft 83 kts 72°
2026-05-07 17:21 53.80555 10.71960 267 ft 114 kts 68°
2026-05-07 17:21 53.80843 10.73223 1008 ft 116 kts 68°
2026-05-07 17:21 53.81132 10.74675 1204 ft 146 kts 70°
2026-05-07 17:21 53.81462 10.76411 1503 ft 159 kts 72°
2026-05-07 17:22 53.81790 10.78204 2026 ft 160 kts 72°
2026-05-07 17:22 53.82120 10.80015 2505 ft 162 kts 73°
2026-05-07 17:22 53.82453 10.81842 3024 ft 162 kts 73°
2026-05-07 17:22 53.82774 10.83648 3488 ft 163 kts 72°
2026-05-07 17:23 53.83113 10.85496 3925 ft 165 kts 72°
2026-05-07 17:23 53.83408 10.87371 4330 ft 166 kts 86°
2026-05-07 17:23 53.82937 10.89136 4777 ft 175 kts 138°
2026-05-07 17:23 53.81812 10.89995 5200 ft 179 kts 149°
2026-05-07 17:24 53.80930 10.91393 5575 ft 175 kts 131°
2026-05-07 17:24 53.79904 10.92593 5955 ft 181 kts 137°
2026-05-07 17:24 53.79095 10.94172 6296 ft 179 kts 133°
2026-05-07 17:24 53.77920 10.94914 6667 ft 190 kts 177°
2026-05-07 17:25 53.76581 10.94768 7086 ft 193 kts 183°
2026-05-07 17:25 53.75247 10.94534 7496 ft 195 kts 184°
2026-05-07 17:25 53.73892 10.94303 7927 ft 196 kts 184°
2026-05-07 17:25 53.72531 10.94078 8367 ft 197 kts 183°
2026-05-07 17:26 53.71161 10.93883 8815 ft 198 kts 182°
2026-05-07 17:26 53.69787 10.93717 9251 ft 198 kts 182°
2026-05-07 17:26 53.68409 10.93564 9665 ft 199 kts 182°
2026-05-07 17:26 53.67028 10.93421 10062 ft 199 kts 182°
2026-05-07 17:27 53.65644 10.93289 10448 ft 198 kts 182°
2026-05-07 17:27 53.64271 10.93164 10806 ft 198 kts 182°
2026-05-07 17:27 53.62901 10.93034 11161 ft 197 kts 183°
2026-05-07 17:27 53.61527 10.92888 11515 ft 197 kts 184°
2026-05-07 17:28 53.60157 10.92740 11862 ft 197 kts 184°
2026-05-07 17:28 53.58788 10.92592 12229 ft 197 kts 184°
2026-05-07 17:28 53.57415 10.92442 12563 ft 197 kts 185°
2026-05-07 17:28 53.56043 10.92289 12885 ft 198 kts 185°
2026-05-07 17:29 53.54665 10.92140 13201 ft 199 kts 185°
2026-05-07 17:29 53.53296 10.91991 13529 ft 200 kts 185°
2026-05-07 17:29 53.51905 10.91840 13840 ft 201 kts 185°
2026-05-07 17:29 53.50508 10.91686 14107 ft 202 kts 185°
2026-05-07 17:30 53.49104 10.91532 14378 ft 203 kts 185°
2026-05-07 17:30 53.47693 10.91379 14635 ft 204 kts 186°
2026-05-07 17:30 53.46278 10.91225 14890 ft 205 kts 186°
2026-05-07 17:30 53.44854 10.91071 15145 ft 205 kts 185°
2026-05-07 17:31 53.43424 10.90918 15410 ft 206 kts 186°
2026-05-07 17:31 53.41988 10.90760 15669 ft 207 kts 186°
2026-05-07 17:31 53.40541 10.90603 15924 ft 208 kts 186°
2026-05-07 17:31 53.39092 10.90445 16168 ft 209 kts 186°
2026-05-07 17:32 53.37637 10.90287 16416 ft 210 kts 186°
2026-05-07 17:32 53.36177 10.90131 16650 ft 211 kts 186°
2026-05-07 17:32 53.34708 10.89971 16876 ft 211 kts 186°
2026-05-07 17:32 53.33238 10.89814 17098 ft 212 kts 186°
2026-05-07 17:33 53.31783 10.89657 17319 ft 213 kts 186°
2026-05-07 17:33 53.30299 10.89497 17574 ft 214 kts 186°
2026-05-07 17:33 53.28812 10.89334 17794 ft 215 kts 186°
2026-05-07 17:33 53.27320 10.89176 18017 ft 215 kts 186°
2026-05-07 17:34 53.25820 10.89017 18233 ft 216 kts 186°
2026-05-07 17:34 53.24313 10.88845 18524 ft 217 kts 186°
2026-05-07 17:34 53.22804 10.88680 18702 ft 218 kts 186°
2026-05-07 17:34 53.21291 10.88520 18880 ft 218 kts 186°
2026-05-07 17:35 53.19775 10.88359 19046 ft 219 kts 186°
2026-05-07 17:35 53.18251 10.88195 19204 ft 220 kts 186°
2026-05-07 17:35 53.16722 10.88030 19366 ft 220 kts 186°
2026-05-07 17:35 53.15190 10.87864 19526 ft 221 kts 186°
2026-05-07 17:36 53.13670 10.87701 19678 ft 222 kts 186°
2026-05-07 17:36 53.12128 10.87539 19857 ft 222 kts 186°
2026-05-07 17:36 53.10578 10.87373 20038 ft 223 kts 186°
2026-05-07 17:36 53.09027 10.87203 20204 ft 224 kts 186°
2026-05-07 17:37 53.07472 10.87034 20362 ft 224 kts 186°
2026-05-07 17:37 53.05910 10.86865 20521 ft 225 kts 186°
2026-05-07 17:37 53.04344 10.86697 20691 ft 226 kts 186°
2026-05-07 17:37 53.02775 10.86529 20851 ft 226 kts 186°
2026-05-07 17:38 53.01203 10.86361 20975 ft 228 kts 186°
2026-05-07 17:38 52.99605 10.86189 21027 ft 232 kts 186°
2026-05-07 17:38 52.97983 10.86013 21054 ft 236 kts 186°
2026-05-07 17:38 52.96327 10.85834 21069 ft 240 kts 186°
2026-05-07 17:39 52.94646 10.85652 21067 ft 243 kts 186°
2026-05-07 17:39 52.92942 10.85471 21070 ft 246 kts 186°
2026-05-07 17:39 52.91229 10.85292 21077 ft 248 kts 186°
2026-05-07 17:39 52.89495 10.85110 21072 ft 250 kts 186°
2026-05-07 17:40 52.87749 10.84926 21069 ft 252 kts 186°
2026-05-07 17:40 52.85997 10.84739 21070 ft 253 kts 186°
2026-05-07 17:40 52.84259 10.84554 21068 ft 254 kts 186°
2026-05-07 17:40 52.82491 10.84367 21079 ft 254 kts 186°
2026-05-07 17:41 52.80721 10.84180 21070 ft 255 kts 186°
2026-05-07 17:41 52.78952 10.83991 21081 ft 256 kts 186°
2026-05-07 17:41 52.77172 10.83803 21091 ft 257 kts 186°
2026-05-07 17:41 52.75378 10.83613 21065 ft 258 kts 186°
2026-05-07 17:42 52.73583 10.83424 21067 ft 258 kts 186°
2026-05-07 17:42 52.71792 10.83235 21084 ft 258 kts 186°
2026-05-07 17:42 52.69997 10.83046 21075 ft 259 kts 186°
2026-05-07 17:42 52.68202 10.82856 21082 ft 258 kts 186°
2026-05-07 17:43 52.66409 10.82667 21071 ft 258 kts 186°
2026-05-07 17:43 52.64619 10.82479 21074 ft 258 kts 186°
2026-05-07 17:43 52.62829 10.82292 21074 ft 258 kts 186°
2026-05-07 17:43 52.61064 10.82106 21089 ft 258 kts 186°
2026-05-07 17:44 52.59276 10.81919 21077 ft 257 kts 186°
2026-05-07 17:44 52.57489 10.81731 21080 ft 257 kts 186°
2026-05-07 17:44 52.55701 10.81543 21088 ft 257 kts 186°
2026-05-07 17:44 52.53909 10.81357 21084 ft 257 kts 186°
2026-05-07 17:45 52.52125 10.81169 21088 ft 258 kts 186°
2026-05-07 17:45 52.50331 10.80981 21094 ft 258 kts 186°
2026-05-07 17:45 52.48534 10.80793 21105 ft 259 kts 186°
2026-05-07 17:45 52.46733 10.80604 21089 ft 260 kts 186°
2026-05-07 17:46 52.44928 10.80416 21086 ft 260 kts 186°
2026-05-07 17:46 52.43119 10.80228 21086 ft 260 kts 186°
2026-05-07 17:46 52.41321 10.80043 21090 ft 259 kts 186°
2026-05-07 17:46 52.39524 10.79855 21090 ft 259 kts 186°
2026-05-07 17:47 52.37728 10.79668 21102 ft 259 kts 186°
2026-05-07 17:47 52.35942 10.79487 21106 ft 260 kts 184°
2026-05-07 17:47 52.34130 10.79623 21098 ft 262 kts 176°
2026-05-07 17:47 52.32321 10.79974 21094 ft 262 kts 175°
2026-05-07 17:48 52.30512 10.80335 21092 ft 262 kts 176°
2026-05-07 17:48 52.28699 10.80634 21091 ft 262 kts 177°
2026-05-07 17:48 52.26884 10.80884 21095 ft 262 kts 177°
2026-05-07 17:48 52.25068 10.81136 21099 ft 262 kts 178°
2026-05-07 17:49 52.23242 10.81389 21099 ft 263 kts 177°
2026-05-07 17:49 52.21411 10.81644 21089 ft 264 kts 177°
2026-05-07 17:49 52.19582 10.81897 21090 ft 264 kts 177°
2026-05-07 17:49 52.17771 10.82143 21089 ft 264 kts 177°
2026-05-07 17:50 52.15942 10.82397 21079 ft 264 kts 177°
2026-05-07 17:50 52.14112 10.82654 21085 ft 263 kts 177°
2026-05-07 17:50 52.12307 10.83078 21083 ft 263 kts 163°
2026-05-07 17:50 52.10654 10.84364 21080 ft 263 kts 153°
2026-05-07 17:51 52.09075 10.85871 21078 ft 263 kts 151°
2026-05-07 17:51 52.07501 10.87394 21078 ft 263 kts 152°
2026-05-07 17:51 52.05902 10.88857 21076 ft 263 kts 153°
2026-05-07 17:51 52.04283 10.90255 21075 ft 264 kts 154°
2026-05-07 17:52 52.02658 10.91652 21078 ft 264 kts 154°
2026-05-07 17:52 52.01030 10.93020 21077 ft 262 kts 159°
2026-05-07 17:52 51.99336 10.94023 21077 ft 262 kts 164°
2026-05-07 17:52 51.97595 10.94923 21079 ft 263 kts 164°
2026-05-07 17:53 51.95856 10.95846 21074 ft 263 kts 163°
2026-05-07 17:53 51.94130 10.96851 21076 ft 264 kts 161°
2026-05-07 17:53 51.92408 10.97899 21074 ft 264 kts 161°
2026-05-07 17:53 51.90687 10.98936 21073 ft 264 kts 161°
2026-05-07 17:54 51.88963 10.99968 21077 ft 264 kts 161°
2026-05-07 17:54 51.87239 11.01005 21075 ft 264 kts 161°
2026-05-07 17:54 51.85509 11.02040 21082 ft 265 kts 161°
2026-05-07 17:54 51.83780 11.03074 21081 ft 265 kts 161°
2026-05-07 17:55 51.82045 11.04111 21085 ft 267 kts 161°
2026-05-07 17:55 51.80300 11.05152 21084 ft 268 kts 161°
2026-05-07 17:55 51.78569 11.06189 21077 ft 269 kts 161°
2026-05-07 17:55 51.76813 11.07236 21079 ft 269 kts 161°
2026-05-07 17:56 51.75055 11.08286 21068 ft 269 kts 161°
2026-05-07 17:56 51.73293 11.09335 21067 ft 269 kts 161°
2026-05-07 17:56 51.71542 11.10379 21068 ft 269 kts 161°
2026-05-07 17:56 51.69791 11.11422 21074 ft 268 kts 161°
2026-05-07 17:57 51.68037 11.12462 21073 ft 268 kts 161°
2026-05-07 17:57 51.66877 11.13151 21072 ft 268 kts 161°
2026-05-07 17:57 51.65126 11.14192 21032 ft 270 kts 161°
2026-05-07 17:57 51.63343 11.15248 20839 ft 277 kts 161°
2026-05-07 17:58 51.61512 11.16332 20631 ft 282 kts 161°
2026-05-07 17:58 51.59657 11.17433 20487 ft 285 kts 161°
2026-05-07 17:58 51.57787 11.18450 20424 ft 282 kts 167°
2026-05-07 17:58 51.55869 11.18749 20398 ft 275 kts 190°
2026-05-07 17:59 51.54068 11.17883 20537 ft 266 kts 201°
2026-05-07 17:59 51.52356 11.16850 20727 ft 260 kts 203°
2026-05-07 17:59 51.50692 11.15794 20895 ft 255 kts 204°
2026-05-07 17:59 51.49070 11.14740 20993 ft 254 kts 204°
2026-05-07 18:00 51.47422 11.13683 21032 ft 255 kts 199°
2026-05-07 18:00 51.45652 11.13581 21049 ft 261 kts 166°
2026-05-07 18:00 51.44089 11.15016 21055 ft 261 kts 139°
2026-05-07 18:00 51.42733 11.16955 21056 ft 262 kts 139°
2026-05-07 18:01 51.41360 11.18884 21056 ft 263 kts 141°
2026-05-07 18:01 51.39887 11.20616 21060 ft 264 kts 148°
2026-05-07 18:01 51.38271 11.22033 21062 ft 265 kts 155°
2026-05-07 18:01 51.36572 11.23191 21066 ft 266 kts 159°
2026-05-07 18:02 51.33115 11.25352 21071 ft 268 kts 159°
2026-05-07 18:02 51.31392 11.26472 21068 ft 268 kts 158°
2026-05-07 18:02 51.29669 11.27634 21062 ft 268 kts 158°
2026-05-07 18:03 51.27946 11.28796 21071 ft 269 kts 158°
2026-05-07 18:03 51.26218 11.29960 21070 ft 270 kts 158°
2026-05-07 18:03 51.24481 11.31127 21060 ft 271 kts 157°
2026-05-07 18:03 51.22743 11.32297 21055 ft 271 kts 158°
2026-05-07 18:04 51.21001 11.33466 21063 ft 271 kts 157°
2026-05-07 18:04 51.19290 11.34616 21063 ft 270 kts 158°
2026-05-07 18:04 51.17555 11.35779 21063 ft 270 kts 158°
2026-05-07 18:04 51.15821 11.36943 21066 ft 270 kts 158°
2026-05-07 18:05 51.14087 11.38105 21064 ft 270 kts 158°
2026-05-07 18:05 51.12353 11.39264 21067 ft 270 kts 158°
2026-05-07 18:05 51.10619 11.40425 21066 ft 271 kts 158°
2026-05-07 18:05 51.09136 11.41416 21064 ft 271 kts 158°
2026-05-07 18:06 51.07399 11.42575 21067 ft 271 kts 158°
2026-05-07 18:06 51.05661 11.43736 21078 ft 271 kts 158°
2026-05-07 18:06 51.03915 11.44898 21075 ft 273 kts 158°
2026-05-07 18:06 51.02161 11.46067 21070 ft 274 kts 158°
2026-05-07 18:07 51.00400 11.47239 21060 ft 274 kts 158°
2026-05-07 18:07 50.98640 11.48410 21067 ft 274 kts 158°
2026-05-07 18:07 50.96896 11.49567 21065 ft 275 kts 158°
2026-05-07 18:07 50.95131 11.50743 21057 ft 275 kts 158°
2026-05-07 18:08 50.93366 11.51914 21059 ft 275 kts 158°
2026-05-07 18:08 50.91604 11.53079 21061 ft 274 kts 158°
2026-05-07 18:08 50.89846 11.54243 21063 ft 274 kts 158°
2026-05-07 18:08 50.88089 11.55404 21061 ft 273 kts 158°
2026-05-07 18:09 50.86335 11.56562 21068 ft 273 kts 158°
2026-05-07 18:09 50.84581 11.57721 21064 ft 273 kts 158°
2026-05-07 18:09 50.82829 11.58881 21065 ft 273 kts 158°
2026-05-07 18:09 50.81072 11.60039 21066 ft 273 kts 158°
2026-05-07 18:10 50.79321 11.61192 21058 ft 273 kts 158°
2026-05-07 18:10 50.77562 11.62353 21060 ft 273 kts 158°
2026-05-07 18:10 50.75806 11.63509 21061 ft 274 kts 158°
2026-05-07 18:10 50.74047 11.64665 21064 ft 274 kts 158°
2026-05-07 18:11 50.72305 11.65810 21066 ft 274 kts 158°
2026-05-07 18:11 50.71112 11.66592 21068 ft 275 kts 158°
2026-05-07 18:11 50.68765 11.68129 21068 ft 276 kts 158°
2026-05-07 18:11 50.66990 11.69294 21064 ft 276 kts 158°
2026-05-07 18:12 50.65220 11.70453 21059 ft 275 kts 158°
2026-05-07 18:12 50.63455 11.71606 21062 ft 275 kts 158°
2026-05-07 18:12 50.61684 11.72765 21056 ft 275 kts 158°
2026-05-07 18:12 50.59917 11.73920 21058 ft 275 kts 158°
2026-05-07 18:13 50.58150 11.75071 21058 ft 275 kts 158°
2026-05-07 18:13 50.56402 11.76209 21060 ft 275 kts 158°
2026-05-07 18:13 50.54630 11.77364 21052 ft 275 kts 158°
2026-05-07 18:13 50.52860 11.78517 21052 ft 275 kts 158°
2026-05-07 18:14 50.51088 11.79669 21055 ft 276 kts 158°
2026-05-07 18:14 50.49315 11.80822 21051 ft 276 kts 159°
2026-05-07 18:14 50.47540 11.81974 21055 ft 276 kts 159°
2026-05-07 18:14 50.45760 11.83144 21051 ft 277 kts 158°
2026-05-07 18:15 50.43992 11.84350 21049 ft 277 kts 158°
2026-05-07 18:15 50.42219 11.85556 21045 ft 277 kts 158°
2026-05-07 18:15 50.40453 11.86752 21052 ft 277 kts 158°
2026-05-07 18:15 50.38682 11.87949 21046 ft 277 kts 158°
2026-05-07 18:16 50.36911 11.89148 21046 ft 277 kts 158°
2026-05-07 18:16 50.35161 11.90334 21044 ft 277 kts 158°
2026-05-07 18:16 50.33392 11.91530 21043 ft 277 kts 158°
2026-05-07 18:16 50.31623 11.92723 21045 ft 277 kts 158°
2026-05-07 18:17 50.29849 11.93917 21053 ft 277 kts 158°
2026-05-07 18:17 50.28078 11.95110 21054 ft 277 kts 158°
2026-05-07 18:17 50.26302 11.96308 21050 ft 277 kts 158°
2026-05-07 18:17 50.24524 11.97502 21044 ft 278 kts 158°
2026-05-07 18:18 50.22752 11.98699 21048 ft 277 kts 158°
2026-05-07 18:18 50.20999 11.99879 21043 ft 278 kts 158°
2026-05-07 18:18 50.19225 12.01071 21045 ft 278 kts 158°
2026-05-07 18:18 50.17446 12.02265 21047 ft 278 kts 158°
2026-05-07 18:19 50.15667 12.03460 21043 ft 278 kts 158°
2026-05-07 18:19 50.13898 12.04646 21044 ft 277 kts 158°
2026-05-07 18:19 50.12125 12.05831 21047 ft 277 kts 158°
2026-05-07 18:19 50.10350 12.07020 21046 ft 277 kts 158°
2026-05-07 18:20 50.08578 12.08202 21047 ft 277 kts 158°
2026-05-07 18:20 50.06801 12.09383 21040 ft 277 kts 158°
2026-05-07 18:20 50.05055 12.10557 21040 ft 277 kts 158°
2026-05-07 18:20 50.03283 12.11747 21040 ft 277 kts 158°
2026-05-07 18:21 50.01513 12.12925 21048 ft 277 kts 158°
2026-05-07 18:21 49.99740 12.14099 21043 ft 277 kts 158°
2026-05-07 18:21 49.98012 12.15034 21031 ft 271 kts 174°
2026-05-07 18:21 49.96137 12.15142 21039 ft 270 kts 183°
2026-05-07 18:22 49.94248 12.15136 21035 ft 272 kts 182°
2026-05-07 18:22 49.92997 12.15201 21030 ft 273 kts 179°
2026-05-07 18:22 49.90485 12.15584 21019 ft 273 kts 175°
2026-05-07 18:22 49.88593 12.15968 21030 ft 274 kts 175°
2026-05-07 18:23 49.86704 12.16350 21033 ft 274 kts 175°
2026-05-07 18:23 49.84809 12.16723 21028 ft 274 kts 176°
2026-05-07 18:23 49.82917 12.17062 21026 ft 274 kts 176°
2026-05-07 18:23 49.81014 12.17396 21031 ft 275 kts 176°
2026-05-07 18:24 49.79120 12.17729 21024 ft 275 kts 176°
2026-05-07 18:24 49.77221 12.18063 21026 ft 275 kts 176°
2026-05-07 18:24 49.75318 12.18396 21028 ft 274 kts 176°
2026-05-07 18:24 49.73421 12.18729 21021 ft 274 kts 176°
2026-05-07 18:25 49.71520 12.19059 21023 ft 274 kts 176°
2026-05-07 18:25 49.69624 12.19391 21025 ft 274 kts 176°
2026-05-07 18:25 49.67728 12.19722 21022 ft 274 kts 176°
2026-05-07 18:25 49.65832 12.20049 21023 ft 274 kts 176°
2026-05-07 18:26 49.63961 12.20373 21019 ft 274 kts 176°
2026-05-07 18:26 49.62063 12.20706 21023 ft 274 kts 176°
2026-05-07 18:26 49.60172 12.21033 21027 ft 273 kts 176°
2026-05-07 18:26 49.58274 12.21363 21030 ft 273 kts 176°
2026-05-07 18:27 49.56384 12.21693 21026 ft 273 kts 177°
2026-05-07 18:27 49.54494 12.22019 21027 ft 273 kts 177°
2026-05-07 18:27 49.52603 12.22346 21032 ft 273 kts 177°
2026-05-07 18:27 49.51350 12.22564 21029 ft 273 kts 177°
2026-05-07 18:28 49.48872 12.22526 21035 ft 267 kts 192°
2026-05-07 18:28 49.47031 12.22098 21031 ft 268 kts 192°
2026-05-07 18:28 49.45179 12.21702 21035 ft 269 kts 190°
2026-05-07 18:28 49.43319 12.21433 21038 ft 269 kts 188°
2026-05-07 18:29 49.41445 12.21237 21039 ft 269 kts 188°
2026-05-07 18:29 49.39577 12.21033 21048 ft 269 kts 188°
2026-05-07 18:29 49.37715 12.20812 21043 ft 269 kts 188°
2026-05-07 18:29 49.35844 12.20588 21046 ft 269 kts 188°
2026-05-07 18:30 49.33972 12.20368 21045 ft 269 kts 188°
2026-05-07 18:30 49.32103 12.20145 20994 ft 271 kts 188°
2026-05-07 18:30 49.30186 12.19919 20737 ft 281 kts 188°
2026-05-07 18:30 49.28211 12.19687 20471 ft 288 kts 188°
2026-05-07 18:31 49.26193 12.19451 20244 ft 293 kts 188°
2026-05-07 18:31 49.24133 12.19211 19985 ft 297 kts 188°
2026-05-07 18:31 49.22062 12.18966 19739 ft 301 kts 188°
2026-05-07 18:31 49.19992 12.18721 19493 ft 303 kts 188°
2026-05-07 18:32 49.17881 12.18477 19178 ft 307 kts 188°
2026-05-07 18:32 49.15730 12.18225 18797 ft 312 kts 188°
2026-05-07 18:32 49.13557 12.17972 18418 ft 312 kts 188°
2026-05-07 18:32 49.11407 12.17720 17980 ft 308 kts 188°
2026-05-07 18:33 49.09281 12.17474 17556 ft 304 kts 188°
2026-05-07 18:33 49.07181 12.17228 17125 ft 301 kts 188°
2026-05-07 18:33 49.05096 12.16985 16706 ft 299 kts 188°
2026-05-07 18:33 49.03029 12.16742 16288 ft 297 kts 188°
2026-05-07 18:34 49.00972 12.16506 15875 ft 295 kts 188°
2026-05-07 18:34 48.98954 12.16269 15478 ft 294 kts 188°
2026-05-07 18:34 48.96919 12.16033 15079 ft 293 kts 188°
2026-05-07 18:34 48.94893 12.15797 14684 ft 291 kts 188°
2026-05-07 18:35 48.92875 12.15566 14297 ft 290 kts 188°
2026-05-07 18:35 48.90865 12.15332 13913 ft 289 kts 188°
2026-05-07 18:35 48.88861 12.15099 13489 ft 288 kts 188°
2026-05-07 18:35 48.86865 12.14866 13059 ft 287 kts 188°
2026-05-07 18:36 48.84871 12.14635 12636 ft 286 kts 188°
2026-05-07 18:36 48.82883 12.14405 12209 ft 285 kts 188°
2026-05-07 18:36 48.80910 12.14179 11809 ft 284 kts 188°
2026-05-07 18:36 48.78935 12.13948 11425 ft 283 kts 188°
2026-05-07 18:37 48.76993 12.13732 11229 ft 276 kts 188°
2026-05-07 18:37 48.75110 12.13519 11143 ft 268 kts 188°
2026-05-07 18:37 48.73272 12.13309 11101 ft 268 kts 188°
2026-05-07 18:37 48.71410 12.13090 11077 ft 268 kts 188°
2026-05-07 18:38 48.69517 12.12866 10721 ft 273 kts 188°
2026-05-07 18:38 48.67643 12.12650 10357 ft 267 kts 188°
2026-05-07 18:38 48.65807 12.12440 9987 ft 262 kts 188°
2026-05-07 18:38 48.63998 12.12232 9589 ft 259 kts 188°
2026-05-07 18:39 48.62210 12.12027 9196 ft 257 kts 188°
2026-05-07 18:39 48.60429 12.11827 8792 ft 255 kts 188°
2026-05-07 18:39 48.58668 12.11628 8397 ft 253 kts 188°
2026-05-07 18:39 48.56917 12.11700 8013 ft 252 kts 177°
2026-05-07 18:40 48.55170 12.12063 7621 ft 253 kts 175°
2026-05-07 18:40 48.53407 12.12473 7025 ft 261 kts 174°
2026-05-07 18:40 48.51594 12.12902 6438 ft 266 kts 174°
2026-05-07 18:40 48.49754 12.13312 5811 ft 266 kts 175°
2026-05-07 18:41 48.47932 12.13674 5199 ft 262 kts 175°
2026-05-07 18:41 48.46141 12.13800 4610 ft 253 kts 185°
2026-05-07 18:41 48.44444 12.13444 4309 ft 239 kts 192°
2026-05-07 18:41 48.42894 12.12854 4185 ft 221 kts 201°
2026-05-07 18:42 48.41433 12.12011 4126 ft 227 kts 204°
2026-05-07 18:42 48.40162 12.11011 4066 ft 220 kts 221°
2026-05-07 18:42 48.39062 12.09406 4060 ft 215 kts 227°
2026-05-07 18:42 48.38389 12.07512 4063 ft 210 kts 262°
2026-05-07 18:43 48.38316 12.05349 4067 ft 199 kts 269°
2026-05-07 18:43 48.38295 12.03410 4051 ft 179 kts 270°
2026-05-07 18:43 48.38250 12.01594 4014 ft 170 kts 266°
2026-05-07 18:43 48.38113 11.99843 3835 ft 168 kts 263°
2026-05-07 18:44 48.37937 11.98124 3611 ft 162 kts 262°
2026-05-07 18:44 48.37771 11.96422 3397 ft 166 kts 264°
2026-05-07 18:44 48.37646 11.94682 3170 ft 166 kts 265°
2026-05-07 18:44 48.37540 11.93084 2966 ft 142 kts 266°
2026-05-07 18:45 48.37434 11.91680 2777 ft 129 kts 265°
2026-05-07 18:45 48.37362 11.90804 2660 ft 128 kts 265°
2026-05-07 18:45 48.37253 11.89446 2473 ft 132 kts 265°
2026-05-07 18:45 48.37146 11.88067 2277 ft 133 kts 265°
2026-05-07 18:46 48.37028 11.86708 2173 ft 126 kts 265°
2026-05-07 18:46 48.36935 11.85400 2000 ft 125 kts 265°
2026-05-07 18:46 48.36836 11.84102 1835 ft 126 kts 266°
2026-05-07 18:46 48.36735 11.82777 1636 ft 127 kts 266°
2026-05-07 18:47 48.36641 11.81530 1480 ft 110 kts 265°
2026-05-07 18:47 48.36566 11.80547 1476 ft 75 kts 262°
2026-05-07 18:47 48.36524 11.79990 1482 ft 30 kts 261°
2026-05-07 18:47 48.36475 11.79765 1478 ft 19 kts 242°
2026-05-07 18:48 48.36418 11.79636 1475 ft 13 kts 233°
2026-05-07 18:48 48.36368 11.79534 1472 ft 9 kts 233°
2026-05-07 18:48 48.36344 11.79485 1477 ft 5 kts 233°
2026-05-07 18:48 48.36330 11.79457 1477 ft 5 kts 233°
2026-05-07 18:49 48.36317 11.79430 1478 ft 0 kts 233°
2026-05-07 18:52 48.36311 11.79419 1479 ft 5 kts 233°
2026-05-07 18:52 48.36275 11.79346 1477 ft 11 kts 233°
2026-05-07 18:52 48.36227 11.79247 1482 ft 12 kts 233°
2026-05-07 18:53 48.36187 11.79128 1479 ft 13 kts 263°
2026-05-07 18:53 48.36177 11.78993 1472 ft 13 kts 263°
2026-05-07 18:53 48.36167 11.78857 1482 ft 13 kts 263°
2026-05-07 18:53 48.36155 11.78710 1482 ft 18 kts 263°
2026-05-07 18:54 48.36142 11.78518 1482 ft 22 kts 265°
2026-05-07 18:54 48.36121 11.78262 1482 ft 24 kts 263°
2026-05-07 18:54 48.36103 11.78038 1477 ft 22 kts 263°
2026-05-07 18:54 48.36086 11.77812 1482 ft 20 kts 263°
2026-05-07 18:55 48.36076 11.77663 1470 ft 0 kts 241°
2026-05-07 18:55 48.36057 11.77660 1469 ft 7 kts 180°
2026-05-07 18:55 48.35992 11.77671 1481 ft 11 kts 173°
2026-05-07 18:55 48.35907 11.77685 1478 ft 13 kts 173°
2026-05-07 18:56 48.35864 11.77692 1479 ft 0 kts 174°
2026-05-07 18:57 48.35826 11.77699 1482 ft 11 kts 173°
2026-05-07 18:57 48.35776 11.77782 1482 ft 12 kts 86°
2026-05-07 18:57 48.35821 11.77861 1473 ft 10 kts
2026-05-07 18:57 48.35881 11.77854 1482 ft 6 kts 353°
2026-05-07 18:58 48.35886 11.77853 1482 ft 0 kts 353°
2026-05-07 18:59 48.35903 11.77850 1482 ft 9 kts 354°
2026-05-07 19:00 48.35961 11.77823 1480 ft 9 kts 316°
2026-05-07 19:00 48.35971 11.77734 1480 ft 10 kts 260°
2026-05-07 19:00 48.35914 11.77684 1474 ft 12 kts 175°
2026-05-07 19:00 48.35844 11.77696 1482 ft 0 kts 173°
2026-05-07 19:02 48.35838 11.77697 1482 ft 6 kts 173°
2026-05-07 19:02 48.35767 11.77709 1472 ft 12 kts 173°
2026-05-07 19:02 48.35658 11.77728 1475 ft 18 kts 174°
2026-05-07 19:03 48.35533 11.77750 1479 ft 19 kts 173°
2026-05-07 19:03 48.35466 11.77754 1477 ft 3 kts 209°
2026-05-07 19:03 48.35466 11.77736 1479 ft 5 kts 269°
2026-05-07 19:03 48.35461 11.77665 1482 ft 4 kts 263°
2026-05-07 19:04 48.35460 11.77657 1479 ft 0 kts 262°